星链-6374 (STARLINK-6374 )

导读

STARLINK-6374是美国太空探索技术公司Starlink星链计划的卫星,于2023年7月16日发射升空,归属美国。星链计划旨在搭建全球卫星互联网星座,为全球提供低时延、宽带覆盖的网络通信服务,该卫星入轨后,承担全球组网通信任务,是星链低轨卫星互联网星座的组成单元。

Basic Information
目录编号:
57338
目录名称:
STARLINK-6374
国际标识:
2023-099L
轨道中心:
EARTH
卫星名称:
星链-6374
卫星全名:
星链-6374 (STARLINK-6374 )
卫星状态:
在轨 (已飞行1154 天)
发射日期:
2023-07-16 UTC
国别 :
美国 (US)
星等 :
--
This satellite is enrolled in the Space Conjunction Data Service (SCDS) and the current flight risk assessment level is: No High Risk
Orbit Information
数据来源 国际轨道数据 AOE轨道数据
星历时间 2026-09-12T10:29:33+0800
15小时前
查看轨道信息
2026-09-06T07:00:00+0800
6天前
查看轨道信息
半长轴 6861.21km 6861.183km
偏心率 0.0000856 0.0000306
轨道倾角 43.000° 43.004°
近地点辐角 274.060° 211.249°
升交点赤经 279.837° 314.546°
平近点角 86.016° 153.313°
近地点 482.485km 482.836km
远地点 483.661km 483.256km
周期 94.267分钟 94.267分钟
每日圈数 15.275722 15.275811
Detailed Information
固有亮度:
5
最大亮度:
2.5
卫星平台:
Starlink v1.5
覆盖范围:
全球
运营商:
太空探索技术公司
运营商所在国:
美国
制造商(研发单位):
太空探索技术公司
制造商所在国:
美国
使用方式:
暂无
Satellite Introduction
星链(Starlink)计划是由太空探索技术公司(SpaceX)提出的一个巨型低轨卫星互联网星座项目,计划在2019年至2024年间在太空搭建由约1.2万颗卫星组成的“星链”网络,其中1584颗将部署在地球上空550千米处的近地轨道,并从2020年开始工作。该卫星仍在工作。
2D Orbit Map
3D Orbit Map
Orbit Altitude Analysis Chart
Orbit Inclination Analysis Chart
Orbit Comprehensive Analysis Chart
View Comprehensive Chart
Conjunction Data List
Event ID Objects TCA Miss Dist (km) Collision Risk Probability Collision Risk Index (CRI) Action
CDM_260915-022305-733806-717321
2026-09-15T
02:23:00+0000
0.951 km
远距离
1.520157E-5 中风险 0.59
CDM_260914-151905-733806-784021
2026-09-14T
15:19:29+0000
0.912 km
远距离
7.611635E-6 低风险 0.53
CDM_260914-174005-733806-784021
2026-09-14T
17:40:43+0000
1.058 km
极远距离
4.605043E-6 低风险 0.48
CDM_260915-035705-733806-717321
2026-09-15T
03:57:09+0000
1.413 km
极远距离
3.964336E-6 低风险 0.47
CDM_260914-191405-733806-784021
2026-09-14T
19:14:52+0000
1.479 km
极远距离
1.576473E-6 低风险 0.39
CDM_260914-165305-733806-784021
2026-09-14T
16:53:38+0000
1.769 km
极远距离
9.681333E-7 极低风险 0.35
CDM_260915-004805-733806-717321
2026-09-15T
00:48:51+0000
2.613 km
极远距离
8.804437E-7 极低风险 0.34
Miss Distance Evolution Trend with All Objects
Collision Probability Evolution Trend with All Objects